Powrót do katalogu

YAOGAN-36 05A

AktywnyMilitariaVLEO
NORAD 57452·PAYLOAD·🇨🇳 China

Wystrzelony Jul 26, 2023 z Xichang Satellite Launch Center

Loading…

Następne Przeloty (najbliższe 24 godziny)

TLE

ŚwieżeSource: Space-Track

Epoka: Sep 14, 2026, 08:36 UTC

1 57452U 23106A   26257.35868080  .00006832  00000-0  28514-3 0  9997
2 57452  35.0054 216.9258 0001297 189.6633 170.4057 15.22969522174751

Śledź YAOGAN-36 05A w czasie rzeczywistym z AllMySat

Download on the App Store